GW2467 Weather Reports


time (UTC)temp
F
wind
direction
speed
knots
gust
knots
rain 1hr
in
rain 24hr
in
rain mn
in
humidity
%
barometer
mb
20260507105804 53 126 0.0 0.0 0.00 0.00 0.00 97 997.0
20260507105300 53 126 0.0 0.0 0.00 0.00 0.00 97 997.0
20260507104758 53 126 0.0 0.0 0.00 0.00 0.00 97 997.0
20260507104254 53 126 0.0 0.0 0.00 0.00 0.00 97 997.2
20260507103750 53 126 0.0 0.0 0.00 0.00 0.00 97 997.3
20260507103246 53 124 0.0 0.0 0.00 0.00 0.00 97 997.3
20260507102743 53 124 0.0 0.0 0.00 0.00 0.00 97 997.2
20260507102240 53 124 0.0 0.0 0.00 0.00 0.00 97 997.3
20260507101736 52 124 0.0 0.0 0.00 0.00 0.00 97 997.4
20260507101231 53 124 0.0 0.0 0.00 0.00 0.00 97 997.4
20260507100728 53 123 0.0 0.0 0.00 0.00 0.00 97 997.5
20260507100227 53 123 0.0 0.0 0.00 0.00 0.00 97 997.5
20260507095724 53 123 0.0 0.0 0.00 0.00 0.00 97 997.2
20260507095220 53 123 0.0 0.0 0.00 0.00 0.00 96 997.4
20260507094717 53 123 0.0 0.0 0.00 0.00 0.00 96 997.4
20260507094215 53 109 0.0 0.0 0.00 0.00 0.00 96 997.6
20260507093711 53 129 0.0 0.0 0.00 0.00 0.00 96 997.4
20260507093210 53 125 0.0 0.0 0.00 0.00 0.00 96 997.5
20260507092707 53 164 0.0 0.0 0.00 0.00 0.00 96 997.7
20260507092203 53 164 0.0 0.0 0.00 0.00 0.00 96 997.6
20260507091659 53 164 0.0 0.0 0.00 0.00 0.00 96 997.7
20260507091156 53 163 0.0 0.0 0.00 0.00 0.00 95 997.9
20260507090651 53 163 0.0 0.0 0.00 0.00 0.00 95 997.8
20260507090149 53 163 0.0 0.0 0.00 0.00 0.00 95 997.8
20260507085646 54 163 0.0 0.0 0.00 0.00 0.00 95 997.8
20260507085143 54 163 0.0 0.0 0.00 0.00 0.00 95 997.8
20260507084640 54 163 0.0 0.0 0.00 0.00 0.00 95 998.1
20260507084136 54 163 0.0 0.0 0.00 0.00 0.00 95 998.0
20260507083633 54 163 0.0 0.0 0.00 0.00 0.00 95 998.1
20260507083130 55 163 0.0 0.0 0.00 0.00 0.00 95 998.0
20260507082625 55 163 0.0 0.0 0.00 0.00 0.00 94 998.2
20260507082122 55 163 0.0 0.0 0.00 0.00 0.00 94 998.1
20260507081619 55 163 0.0 0.0 0.00 0.00 0.00 94 998.3
20260507081115 55 163 0.0 0.0 0.00 0.00 0.00 94 998.3
20260507080612 55 163 0.0 0.0 0.00 0.00 0.00 94 998.2
20260507080108 55 163 0.0 0.0 0.00 0.00 0.00 94 998.4
20260507075603 55 163 0.0 0.0 0.00 0.00 0.00 93 998.2
20260507075100 55 163 0.0 0.0 0.00 0.00 0.00 93 998.3
20260507074557 55 163 0.0 0.0 0.00 0.00 0.00 92 998.2
20260507074055 55 163 0.0 0.0 0.00 0.00 0.00 92 998.4
20260507073550 55 163 0.0 0.0 0.00 0.00 0.00 92 998.2
20260507073047 55 164 0.0 0.0 0.00 0.00 0.00 92 998.2
20260507072545 55 163 0.0 0.0 0.00 0.00 0.00 91 998.3
20260507072042 55 164 0.0 0.0 0.00 0.00 0.00 91 998.1
20260507071539 55 163 0.0 0.0 0.00 0.00 0.00 90 998.4
20260507071036 55 163 0.0 0.0 0.00 0.00 0.00 90 998.3
20260507070533 55 163 0.0 0.0 0.00 0.00 0.00 90 998.5
20260507070030 56 163 0.0 0.0 0.00 0.00 0.00 90 998.5
20260507065526 56 163 0.0 0.0 0.00 0.00 0.00 90 998.6
20260507065023 56 163 0.0 0.0 0.00 0.00 0.00 90 998.4
20260507064521 56 163 0.0 0.0 0.00 0.00 0.00 89 998.4
20260507064020 56 163 0.0 0.0 0.00 0.00 0.00 89 998.7
20260507063516 56 163 0.0 0.0 0.00 0.00 0.00 89 998.8
20260507063014 57 163 0.0 0.0 0.00 0.00 0.00 89 998.9
20260507062510 56 160 0.0 0.0 0.00 0.00 0.00 89 998.9
20260507062008 56 159 0.0 0.0 0.00 0.00 0.00 89 998.5
20260507061505 57 159 0.0 0.0 0.00 0.00 0.00 88 998.7
20260507061004 57 159 0.0 0.0 0.00 0.00 0.00 87 998.8
20260507060501 57 159 0.0 0.0 0.00 0.00 0.00 87 998.8
20260507055957 57 159 0.0 0.0 0.00 0.00 0.00 87 998.7
20260507055452 57 159 0.0 0.0 0.00 0.00 0.00 87 998.5
20260507054949 57 159 0.0 0.0 0.00 0.00 0.00 87 998.5
20260507054445 57 160 0.0 0.0 0.00 0.00 0.00 86 998.5
20260507053942 57 160 0.0 0.0 0.00 0.00 0.00 87 998.4
20260507053440 57 160 0.0 0.0 0.00 0.00 0.00 87 998.4
20260507052938 57 160 0.0 0.0 0.00 0.00 0.00 86 998.7
20260507052436 58 160 0.0 0.0 0.00 0.00 0.00 86 998.4
20260507051933 58 158 0.0 0.0 0.00 0.00 0.00 86 998.5
20260507051430 58 158 0.0 0.0 0.00 0.00 0.00 85 998.7
20260507050927 58 158 0.0 0.0 0.00 0.00 0.00 86 998.6
20260507050423 58 150 0.0 0.0 0.00 0.00 0.00 86 998.4
20260507045920 58 147 0.0 0.0 0.00 0.00 0.00 85 998.4
20260507045417 59 163 0.0 0.0 0.00 0.00 0.00 84 998.6
20260507044914 59 172 0.0 0.0 0.00 0.00 0.00 84 998.6
20260507044411 59 141 0.0 0.0 0.00 0.00 0.00 85 998.5
20260507043907 59 169 0.0 0.0 0.00 0.00 0.00 85 998.7
20260507043403 59 130 0.0 0.9 0.00 0.00 0.00 84 998.3
20260507042859 59 185 0.0 0.0 0.00 0.00 0.00 84 998.3
20260507042356 59 172 0.0 0.0 0.00 0.00 0.00 84 998.5
20260507041852 60 171 0.0 0.9 0.00 0.00 0.00 83 998.4
20260507041349 60 221 0.9 0.9 0.00 0.00 0.00 83 998.2
20260507040846 60 224 0.0 0.9 0.00 0.00 0.00 82 998.2
20260507040342 60 195 0.9 0.9 0.00 0.00 0.00 82 998.0
20260507035838 60 200 0.0 0.9 0.00 0.00 0.00 81 998.1
20260507035334 61 207 0.9 0.9 0.00 0.00 0.00 80 998.1
20260507034832 61 185 0.9 1.7 0.00 0.00 0.00 80 998.2
20260507034328 61 237 0.9 1.7 0.00 0.00 0.00 80 998.2
20260507033826 61 251 2.6 2.6 0.00 0.00 0.00 80 998.0
20260507033324 61 179 0.0 0.0 0.00 0.00 0.00 79 997.9
20260507032821 61 219 1.7 2.6 0.00 0.00 0.00 79 998.1
20260507032317 61 248 0.9 0.9 0.00 0.00 0.00 79 997.8
20260507031814 61 252 0.9 0.9 0.00 0.00 0.00 79 997.8
20260507031311 62 191 0.0 0.9 0.00 0.00 0.00 79 997.7
20260507030807 62 171 1.7 2.6 0.00 0.00 0.00 79 997.6
20260507030305 62 207 0.9 0.9 0.00 0.00 0.00 78 997.8
20260507025801 62 261 0.9 0.9 0.00 0.00 0.00 77 997.7
20260507025259 62 204 0.0 0.9 0.00 0.00 0.00 77 997.7
20260507024757 62 170 2.6 4.3 0.00 0.00 0.00 77 997.5
20260507024253 63 221 0.9 0.9 0.00 0.00 0.00 76 997.6
20260507023749 63 168 0.9 0.9 0.00 0.00 0.00 75 997.5
20260507023246 63 245 0.9 1.7 0.00 0.00 0.00 74 997.5
20260507022743 64 227 0.9 1.7 0.00 0.00 0.00 74 997.5
20260507022239 64 286 2.6 4.3 0.00 0.00 0.00 74 997.5
20260507021736 64 286 4.3 6.1 0.00 0.00 0.00 72 997.5
20260507021231 65 190 0.9 0.9 0.00 0.00 0.00 71 997.3
20260507020730 66 328 1.7 1.7 0.00 0.00 0.00 69 997.2
20260507020226 66 281 1.7 1.7 0.00 0.00 0.00 69 997.3
20260507015724 66 324 3.5 4.3 0.00 0.00 0.00 67 997.3
20260507015221 67 254 2.6 2.6 0.00 0.00 0.00 66 997.3
20260507014717 67 204 0.9 1.7 0.00 0.00 0.00 66 997.2
20260507014214 67 252 0.9 1.7 0.00 0.00 0.00 66 997.2
20260507013710 68 246 1.7 1.7 0.00 0.00 0.00 64 997.3
20260507013208 68 179 0.0 0.9 0.00 0.00 0.00 64 997.1
20260507012705 68 156 0.9 1.7 0.00 0.00 0.00 63 997.2
20260507012200 69 280 2.6 4.3 0.00 0.00 0.00 62 997.1
20260507011659 69 204 2.6 4.3 0.00 0.00 0.00 62 997.1
20260507011155 69 253 1.7 1.7 0.00 0.00 0.00 61 996.9
20260507010654 69 214 1.7 1.7 0.00 0.00 0.00 60 997.3
20260507010150 69 260 3.5 5.2 0.00 0.00 0.00 59 997.1
20260507005648 69 17 2.6 4.3 0.00 0.00 0.00 60 997.1
20260507005144 70 271 2.6 5.2 0.00 0.00 0.00 60 997.1
20260507004641 69 141 1.7 2.6 0.00 0.00 0.00 61 997.0
20260507004139 70 341 2.6 2.6 0.00 0.00 0.00 60 997.1
20260507003635 70 245 1.7 2.6 0.00 0.00 0.00 59 997.1
20260507003130 70 265 2.6 4.3 0.00 0.00 0.00 58 996.9
20260507002627 70 250 2.6 4.3 0.00 0.00 0.00 58 997.1
20260507002122 70 254 2.6 4.3 0.00 0.00 0.00 59 996.9
20260507001620 71 259 2.6 4.3 0.00 0.00 0.00 59 997.0
20260507001117 71 204 2.6 4.3 0.00 0.00 0.00 58 996.8
20260507000613 70 221 1.7 1.7 0.00 0.00 0.00 58 996.8
20260507000113 70 241 4.3 6.1 0.00 0.00 0.00 59 996.7
20260506235611 71 234 2.6 4.3 0.00 0.00 0.00 58 996.8
20260506235111 71 176 0.0 0.9 0.00 0.00 0.00 59 996.7
20260506234609 70 277 1.7 1.7 0.00 0.00 0.00 59 996.7
20260506234106 70 206 3.5 5.2 0.00 0.00 0.00 58 996.8
20260506233603 71 224 3.5 4.3 0.00 0.00 0.00 59 996.7
20260506233100 71 254 2.6 2.6 0.00 0.00 0.00 60 996.7
20260506232556 71 212 3.5 5.2 0.00 0.00 0.00 59 996.6
20260506232051 71 207 2.6 2.6 0.00 0.00 0.00 59 996.8
20260506231549 71 57 2.6 2.6 0.00 0.00 0.00 59 996.6
20260506231047 71 197 3.5 4.3 0.00 0.00 0.00 58 996.7
20260506230543 72 287 3.5 4.3 0.00 0.00 0.00 59 996.8
20260506230041 72 277 3.5 5.2 0.00 0.00 0.00 58 996.7
20260506225537 72 246 3.5 5.2 0.00 0.00 0.00 57 996.8
20260506225033 72 302 2.6 4.3 0.00 0.00 0.00 58 996.6
20260506224530 71 166 4.3 6.1 0.00 0.00 0.00 59 996.8
20260506224027 72 222 2.6 2.6 0.00 0.00 0.00 58 996.7
20260506223523 71 255 1.7 4.3 0.00 0.00 0.00 59 996.8
20260506223020 73 237 1.7 4.3 0.00 0.00 0.00 57 996.9
20260506222516 72 252 4.3 5.2 0.00 0.00 0.00 58 997.0
20260506222013 71 294 4.3 7.0 0.00 0.00 0.00 58 997.0
20260506221510 72 213 2.6 2.6 0.00 0.00 0.00 57 997.1
20260506221008 72 194 2.6 4.3 0.00 0.00 0.00 58 997.1
20260506220509 71 256 3.5 5.2 0.00 0.00 0.00 58 996.8
20260506220005 72 190 0.9 1.7 0.00 0.00 0.00 59 997.0
20260506215502 72 254 3.5 5.2 0.00 0.00 0.00 56 997.0
20260506214957 71 277 1.7 2.6 0.00 0.00 0.00 58 997.1
20260506214454 71 218 3.5 5.2 0.00 0.00 0.00 59 997.1
20260506213952 72 333 1.7 2.6 0.00 0.00 0.00 58 997.2
20260506213450 72 258 4.3 6.1 0.00 0.00 0.00 58 997.2
20260506212947 73 327 4.3 7.0 0.00 0.00 0.00 56 997.2
20260506212442 72 323 4.3 6.1 0.00 0.00 0.00 58 997.3
20260506211942 72 242 1.7 1.7 0.00 0.00 0.00 58 997.0
20260506211439 73 152 3.5 4.3 0.00 0.00 0.00 56 997.3
20260506210936 73 239 2.6 4.3 0.00 0.00 0.00 56 997.1
20260506210432 74 288 2.6 4.3 0.00 0.00 0.00 56 997.3
20260506205930 73 266 1.7 1.7 0.00 0.00 0.00 57 997.0
20260506205426 74 255 2.6 2.6 0.00 0.00 0.00 55 997.4
20260506204922 74 346 4.3 5.2 0.00 0.00 0.00 56 997.2
20260506204420 73 252 1.7 2.6 0.00 0.00 0.00 58 997.3
20260506203917 73 78 2.6 4.3 0.00 0.00 0.00 56 997.4
20260506203414 75 348 2.6 4.3 0.00 0.00 0.00 53 997.4
20260506202911 74 225 3.5 5.2 0.00 0.00 0.00 53 997.6
20260506202408 74 230 2.6 2.6 0.00 0.00 0.00 54 997.4
20260506201905 74 209 0.9 1.7 0.00 0.00 0.00 55 997.4
20260506201402 74 271 3.5 5.2 0.00 0.00 0.00 52 997.4
20260506200859 74 134 0.9 1.7 0.00 0.00 0.00 53 997.5
20260506200355 73 257 3.5 4.3 0.00 0.00 0.00 55 997.3
20260506195851 74 297 2.6 4.3 0.00 0.00 0.00 54 997.5
20260506195349 74 214 0.9 0.9 0.00 0.00 0.00 53 997.6
20260506194845 73 271 3.5 6.1 0.00 0.00 0.00 53 997.6
20260506194342 73 254 2.6 2.6 0.00 0.00 0.00 53 997.6
20260506193840 73 122 1.7 2.6 0.00 0.00 0.00 54 997.9
20260506193336 73 244 2.6 2.6 0.00 0.00 0.00 54 997.7
20260506192833 74 245 4.3 5.2 0.00 0.00 0.00 51 997.9
20260506192330 73 260 0.9 0.9 0.00 0.00 0.00 52 998.0
20260506191827 73 264 2.6 2.6 0.00 0.00 0.00 54 997.9
20260506191323 73 213 2.6 5.2 0.00 0.00 0.00 53 998.1
20260506190820 73 140 0.9 0.9 0.00 0.00 0.00 53 998.2
20260506190316 72 246 1.7 2.6 0.00 0.00 0.00 54 997.9
20260506185813 73 258 3.5 4.3 0.00 0.00 0.00 53 998.2
20260506185310 71 202 0.9 0.9 0.00 0.00 0.00 55 998.1
20260506184807 72 158 0.9 1.7 0.00 0.00 0.00 54 998.2
20260506184304 72 359 1.7 1.7 0.00 0.00 0.00 53 998.3
20260506183801 71 76 0.9 1.7 0.00 0.00 0.00 52 998.4
20260506183257 71 199 1.7 1.7 0.00 0.00 0.00 54 998.5
20260506182755 71 244 2.6 2.6 0.00 0.00 0.00 53 998.5
20260506182252 70 231 0.9 1.7 0.00 0.00 0.00 57 998.6
20260506181750 70 330 4.3 6.1 0.00 0.00 0.00 55 998.7
20260506181247 70 245 0.9 1.7 0.00 0.00 0.00 57 998.6
20260506180744 69 316 0.9 0.9 0.00 0.00 0.00 57 998.8
20260506180240 69 244 2.6 2.6 0.00 0.00 0.00 59 998.7
20260506175736 69 4 4.3 5.2 0.00 0.00 0.00 58 998.9
20260506175233 69 64 0.9 1.7 0.00 0.00 0.00 60 998.8
20260506174731 68 24 1.7 2.6 0.00 0.00 0.00 59 998.8
20260506174227 68 243 1.7 2.6 0.00 0.00 0.00 60 998.9
20260506173725 68 20 0.9 0.9 0.00 0.00 0.00 60 999.0
20260506173222 68 343 1.7 1.7 0.00 0.00 0.00 60 999.1
20260506172719 67 245 2.6 2.6 0.00 0.00 0.00 61 999.0
20260506172215 67 147 1.7 1.7 0.00 0.00 0.00 60 999.0
20260506171713 66 258 1.7 1.7 0.00 0.00 0.00 61 999.2
20260506171210 67 295 2.6 2.6 0.00 0.00 0.00 61 999.2
20260506170708 67 178 0.9 0.9 0.00 0.00 0.00 65 999.0
20260506170204 65 142 0.9 0.9 0.00 0.00 0.00 66 999.3
20260506165703 65 133 0.9 0.9 0.00 0.00 0.00 66 999.3
20260506165159 64 275 1.7 1.7 0.00 0.00 0.00 67 999.1
20260506164656 64 108 0.9 0.9 0.00 0.00 0.00 67 999.2
20260506164154 64 200 0.9 0.9 0.00 0.00 0.00 67 999.1
20260506163650 64 179 0.0 0.9 0.00 0.00 0.00 67 999.0
20260506163145 64 191 0.9 1.7 0.00 0.00 0.00 68 999.4
20260506162641 63 235 1.7 1.7 0.00 0.00 0.00 68 999.3
20260506162139 63 55 0.9 0.9 0.00 0.00 0.00 70 999.1
20260506161636 63 54 0.9 0.9 0.00 0.00 0.00 69 999.2
20260506161133 63 25 0.9 0.9 0.00 0.00 0.00 69 999.2
20260506160630 62 78 0.9 0.9 0.00 0.00 0.00 70 999.3
20260506160127 62 44 0.9 0.9 0.00 0.00 0.00 71 999.3
20260506155626 63 62 0.9 0.9 0.00 0.00 0.00 69 999.3
20260506155122 62 159 0.0 0.0 0.00 0.00 0.00 70 999.4
20260506153219 60 104 0.0 0.0 0.00 0.00 0.00 71 999.3
20260506152715 60 224 0.9 0.9 0.00 0.00 0.00 72 999.3
20260506152213 60 67 0.9 0.9 0.00 0.00 0.00 72 999.4
20260506151712 59 147 0.0 0.0 0.00 0.00 0.00 74 999.3
20260506151208 59 105 0.9 0.9 0.00 0.00 0.00 73 999.6
20260506150704 59 147 0.0 0.0 0.00 0.00 0.00 75 999.5
20260506150202 59 117 0.0 0.0 0.00 0.00 0.00 74 999.4
20260506145659 58 119 0.0 0.0 0.00 0.00 0.00 77 999.7
20260506145155 57 152 0.9 1.7 0.00 0.00 0.00 76 999.2
20260506144653 58 100 0.9 0.9 0.00 0.00 0.00 76 999.2
20260506144149 58 122 0.0 0.0 0.00 0.00 0.00 77 999.4
20260506143647 55 137 0.0 0.0 0.00 0.00 0.00 84 999.4
20260506143145 55 137 0.0 0.0 0.00 0.00 0.00 87 999.4
20260506142643 52 183 0.0 0.0 0.00 0.00 0.00 92 999.3
20260506142141 51 184 0.0 0.0 0.00 0.00 0.00 94 999.4
20260506141638 51 184 0.0 0.0 0.00 0.00 0.00 93 999.2
20260506141136 51 197 0.0 0.0 0.00 0.00 0.00 94 999.3
20260506140633 51 164 0.0 0.0 0.00 0.00 0.00 95 999.4
20260506140131 51 191 0.0 0.0 0.00 0.00 0.00 95 999.4
20260506135628 50 192 0.0 0.0 0.00 0.00 0.00 96 999.3
20260506135124 50 127 0.0 0.0 0.00 0.00 0.00 96 999.2
20260506134620 50 127 0.0 0.0 0.00 0.00 0.00 96 999.1
20260506134116 49 127 0.0 0.0 0.00 0.00 0.00 96 999.1
20260506133614 49 127 0.0 0.0 0.00 0.00 0.00 96 999.1
20260506133110 49 127 0.0 0.0 0.00 0.00 0.00 96 998.9
20260506132608 49 127 0.0 0.0 0.00 0.00 0.00 96 999.0
20260506132105 49 127 0.0 0.0 0.00 0.00 0.00 97 999.0
20260506131602 49 127 0.0 0.0 0.00 0.00 0.00 97 998.9
20260506131058 49 127 0.0 0.0 0.00 0.00 0.00 97 998.9
20260506130555 49 127 0.0 0.0 0.00 0.00 0.00 97 998.7
20260506130053 49 127 0.0 0.0 0.00 0.00 0.00 97 998.7
20260506125551 49 127 0.0 0.0 0.00 0.00 0.00 97 998.8
20260506125048 49 127 0.0 0.0 0.00 0.00 0.00 97 998.7
20260506124546 49 127 0.0 0.0 0.00 0.00 0.00 97 998.7
20260506124044 48 127 0.0 0.0 0.00 0.00 0.00 97 998.7
20260506123541 48 127 0.0 0.0 0.00 0.00 0.00 96 998.7
20260506123039 48 127 0.0 0.0 0.00 0.00 0.00 96 998.6
20260506122535 48 127 0.0 0.0 0.00 0.00 0.00 96 998.8
20260506122034 48 126 0.0 0.0 0.00 0.00 0.00 96 998.5
20260506121531 49 127 0.0 0.0 0.00 0.00 0.00 96 998.5
20260506121027 49 126 0.0 0.0 0.00 0.00 0.00 96 998.6
20260506120525 49 126 0.0 0.0 0.00 0.00 0.00 96 998.4
20260506120022 49 126 0.0 0.0 0.00 0.00 0.00 95 998.6
20260506115520 49 126 0.0 0.0 0.00 0.00 0.00 95 998.4
20260506115019 49 126 0.0 0.0 0.00 0.00 0.00 95 998.5
20260506114515 49 127 0.0 0.0 0.00 0.00 0.00 95 998.5
20260506114014 49 126 0.0 0.0 0.00 0.00 0.00 95 998.5
20260506113511 49 128 0.0 0.0 0.00 0.00 0.00 95 998.5
20260506113009 49 128 0.0 0.0 0.00 0.00 0.00 95 998.4
20260506112505 50 128 0.0 0.0 0.00 0.00 0.00 95 998.4
20260506112003 50 128 0.0 0.0 0.00 0.00 0.00 95 998.5
20260506111501 49 126 0.0 0.0 0.00 0.00 0.00 95 998.6
20260506110957 49 129 0.0 0.0 0.00 0.00 0.00 95 998.4
20260506110455 50 129 0.0 0.0 0.00 0.00 0.00 95 998.4
20260506105951 50 129 0.0 0.0 0.00 0.00 0.00 95 998.3